Starlink 33683

operational
NORAD ID: 63573 Int'l Des: 2025-076 Owner: SPXS Country: US Constellation: starlink
LEOCIRCULAR

About Starlink 33683

Description loading...

Live Position

Loading 3D Globe...

Upcoming Passes

Altitude History

Altitude vs Time

uPlot chart will show altitude changes over time

Two-Line Element Set

1 63573U 25076E 26035.32249058 .00036468 00000-0 13273-2 0 9998
2 63573 43.0007 150.4556 0002055 283.7418 76.3204 15.27601164 46725
Epoch: Feb 4, 2026 • Age: 29 hours

Current Status

Altitude 485.8 km
Velocity 7.62 km/s
Sub-Earth Point -15.93°S, 12.54°E
Launch Date Apr 14, 2025
Age 0.8 years
Type internet

Technical Details

Classification Payload
Mass 575.00 kg
Dry Mass 530.00 kg
Total Mass 575.00 kg
Length 0.30 m
Diameter 4.10 m
Span 29.00 m
Shape Box + pan
Manufacturer SPXS
Bus Type Starlink V2MO
Phase Status In Orbit
Owner/State SPXS/US

Large Constellations

Loading constellations...